Wind_Speed
31 31 30 30 29 28 28 27 27 27 27 27 27 27 28 29 28 27 27 27 28 30 30 30 30 28 28 29 30 33 35 35 38 39 33 27 24 28 30 29 27 27 26 29 28 22 18 19 20 21 22 22 20 20 21 22 24 23 22 24 24 24 25 24 25 27 27 29 31 29 27 26 23 23 24 25 25 25 24 22 20 20 21 23 25 26 23
33 32 32 32 31 31 30 29 28 28 28 27 28 28 28 29 29 28 28 29 29 30 30 31 30 29 30 31 31 34 36 36 38 39 34 27 24 26 29 29 30 30 29 31 31 27 23 21 22 24 24 24 23 22 23 23 24 25 25 27 26 26 26 25 24 23 22 23 27 28 27 27 27 26 25 26 27 26 25 23 22 24 25 26 28 25 22
34 33 33 33 33 33 32 31 31 30 29 28 28 29 29 29 30 30 29 29 30 31 32 32 31 30 30 30 31 34 35 35 37 38 32 27 25 25 27 29 32 33 31 31 33 33 29 26 27 28 26 25 25 26 27 27 28 29 31 30 29 28 29 27 25 23 21 21 24 26 28 30 30 28 26 26 28 28 27 27 28 28 28 27 25 23 22
35 35 34 34 34 34 34 33 33 32 31 30 29 29 29 30 31 30 29 29 31 32 33 32 32 31 31 31 32 33 34 34 36 36 31 27 27 28 28 30 32 32 32 32 34 37 35 32 31 31 30 30 31 30 31 33 35 35 34 32 29 28 28 27 27 26 25 24 25 27 29 30 30 29 27 27 28 29 29 29 30 30 28 25 24 24 24
37 37 36 35 35 35 35 35 34 34 33 33 32 31 31 31 30 30 30 30 31 32 32 33 33 32 32 32 33 34 35 35 34 33 30 30 31 29 29 30 30 30 32 34 35 37 39 38 36 34 34 36 36 36 36 37 39 39 36 33 31 27 25 26 27 27 27 27 28 29 29 29 30 30 29 28 29 30 30 30 29 29 28 25 24 25 25
39 39 38 37 37 37 37 36 36 36 35 34 34 33 33 32 32 32 31 31 31 31 31 32 32 32 32 32 33 35 36 35 34 32 31 32 34 31 29 29 29 29 32 35 36 37 39 41 39 37 37 39 40 40 41 41 42 42 39 37 35 32 29 29 28 28 29 29 28 28 28 29 30 31 31 31 30 30 30 30 29 29 28 26 25 27 27
39 40 40 39 39 38 38 38 37 37 37 36 35 35 35 35 34 34 34 33 32 32 31 32 31 31 32 32 32 34 35 35 35 33 32 33 34 33 31 30 30 29 30 33 36 37 39 41 41 40 39 41 41 42 43 44 45 45 43 41 38 36 35 33 31 31 31 30 30 30 30 32 32 33 33 33 31 29 29 29 28 29 29 28 28 29 28
39 40 40 40 40 40 40 39 39 38 38 37 37 38 37 37 37 37 36 35 34 34 34 34 32 32 34 33 32 33 35 35 34 34 32 32 32 31 30 30 31 30 30 32 34 36 38 40 42 43 43 44 44 45 45 47 48 48 46 43 40 38 37 35 33 33 32 32 32 33 34 35 34 34 34 33 30 28 28 27 27 29 31 31 30 31 30
40 40 40 40 41 41 41 41 41 40 39 39 39 40 39 39 39 38 37 37 37 37 37 37 36 36 37 36 35 35 36 36 34 33 32 30 30 30 29 31 32 32 33 34 35 36 38 39 40 41 42 44 45 46 48 49 50 50 48 45 42 40 38 35 34 34 33 32 33 33 33 34 33 31 31 31 29 27 27 27 28 30 32 32 32 33 32
39 41 41 41 41 41 42 42 42 42 41 40 40 41 41 41 41 39 38 39 39 39 39 39 39 40 39 39 38 38 38 38 36 34 32 31 31 32 32 33 34 34 35 36 36 36 37 38 38 37 38 41 43 44 46 47 48 47 47 46 44 41 39 37 37 36 33 32 33 33 34 33 30 28 28 28 28 29 29 29 31 32 32 33 33 34 34
36 39 41 41 41 41 41 42 43 43 43 42 42 41 42 42 42 41 40 41 41 41 40 40 41 41 41 40 40 40 40 40 38 36 35 34 34 35 36 36 36 37 37 37 37 37 38 38 37 35 36 39 41 41 42 43 44 44 43 42 41 40 38 37 37 36 35 35 34 35 35 32 27 26 28 29 31 32 32 32 32 32 33 35 36 36 36
36 37 38 40 41 42 42 42 43 44 44 44 43 43 43 42 42 42 42 43 43 43 42 42 42 42 42 42 42 41 41 41 40 38 37 37 38 39 39 39 39 40 39 38 37 37 37 38 37 36 37 38 38 37 37 38 39 38 38 39 39 38 38 38 38 37 37 36 36 37 36 31 27 27 28 30 31 32 32 32 32 33 35 36 37 38 37
38 37 37 38 39 41 42 42 42 43 44 45 45 44 44 43 43 43 43 43 44 44 44 44 43 43 43 43 43 42 42 41 41 40 39 39 40 41 42 43 42 42 42 40 37 36 37 37 37 37 38 38 36 35 36 36 35 34 35 36 36 37 38 39 39 39 38 37 37 38 36 32 30 29 29 30 31 32 32 32 33 35 36 37 38 38 38
40 39 38 38 38 39 41 42 42 43 44 45 45 45 45 45 45 44 44 43 44 45 45 46 45 44 45 45 44 43 42 41 41 41 40 41 41 43 45 45 44 44 44 41 38 38 37 36 35 36 37 38 37 36 36 36 35 35 35 35 35 36 38 39 40 41 40 38 38 38 37 34 32 30 31 32 32 32 33 34 35 36 36 36 37 36 36
42 41 40 39 39 38 39 40 42 43 43 44 45 45 46 46 46 45 45 44 44 45 46 46 45 45 46 46 45 44 43 43 42 42 42 42 42 42 44 45 45 45 44 42 40 39 37 36 35 35 36 36 37 37 37 37 37 36 35 35 36 38 39 39 41 42 41 40 40 39 38 35 33 32 33 33 32 33 33 33 35 35 35 35 34 32 31
42 42 42 41 40 40 39 39 40 42 43 44 44 45 45 46 46 46 46 45 45 45 45 45 44 45 46 46 45 45 45 45 44 44 44 43 42 42 43 44 45 45 44 42 41 39 37 37 37 36 35 36 37 39 39 38 38 37 36 36 38 39 39 39 40 42 42 41 40 40 39 36 33 31 32 33 33 33 33 33 34 34 34 33 31 29 29
42 42 42 42 41 41 40 40 40 40 42 43 44 44 45 45 46 46 47 46 45 46 45 44 44 45 45 45 45 45 45 46 46 46 46 45 44 43 43 43 43 44 43 42 42 40 38 38 38 39 39 38 39 40 40 39 38 37 35 35 37 38 39 39 40 41 40 39 39 40 39 37 33 31 31 32 34 34 33 32 31 30 30 30 29 29 30
42 42 42 42 41 41 41 41 40 40 40 41 43 44 45 45 45 46 46 46 46 46 47 46 45 45 45 45 45 45 45 45 46 46 46 45 45 45 44 42 41 41 42 42 42 41 40 39 39 40 41 41 40 41 41 40 39 37 34 34 36 38 39 39 39 39 38 38 39 39 39 36 33 33 32 32 33 33 32 30 28 27 27 28 29 30 30
42 42 42 41 41 41 41 41 41 41 40 40 41 42 44 45 45 45 45 46 45 45 46 47 47 46 45 45 45 45 45 45 45 45 45 45 45 44 44 42 41 40 41 43 44 44 43 42 41 41 41 41 41 42 41 40 39 37 35 35 37 38 39 39 38 37 37 37 38 40 40 36 33 33 32 31 31 31 30 29 28 27 27 28 29 30 30
42 42 42 41 40 40 40 40 41 41 41 40 40 41 42 43 44 44 44 45 44 44 46 47 46 45 44 44 45 46 46 46 46 46 46 45 45 44 44 44 44 42 42 44 45 46 46 45 44 43 42 41 41 42 42 41 40 37 35 35 36 36 38 39 38 36 36 38 40 40 39 36 34 34 33 32 33 32 31 29 29 29 29 30 30 31 32
42 42 42 42 41 40 40 40 40 40 41 41 40 40 40 41 42 43 44 44 44 45 46 47 46 46 45 45 46 47 48 48 48 48 47 47 46 45 45 46 47 46 45 45 46 47 48 47 46 45 43 41 41 41 42 42 40 38 35 33 34 36 38 39 39 38 38 40 41 41 38 36 36 35 34 34 34 33 31 31 32 32 31 31 32 33 35
42 43 43 42 41 40 39 39 39 40 40 41 40 40 40 40 40 41 42 43 43 44 45 45 46 46 46 46 46 47 48 49 49 49 48 48 48 47 47 47 48 48 48 47 46 47 48 47 47 46 43 40 39 40 41 42 41 39 36 33 33 35 37 38 38 39 41 41 42 41 39 38 37 36 36 36 36 35 34 33 33 33 32 32 33 35 36
43 43 43 42 41 40 40 39 39 39 40 40 40 40 40 39 39 39 40 40 40 41 42 43 44 45 45 46 46 45 46 47 48 49 49 48 48 48 47 47 48 49 48 48 48 48 47 47 48 47 44 42 40 38 38 39 40 39 37 35 35 36 37 39 39 39 41 42 43 42 41 40 40 39 39 39 38 38 36 35 33 33 34 35 36 37 39
44 43 43 42 42 41 40 40 39 39 40 40 40 40 40 39 39 39 39 39 39 39 39 41 42 43 45 45 45 44 45 46 47 48 49 48 48 47 47 48 48 48 48 49 50 50 49 48 48 48 46 44 41 39 37 36 37 37 37 36 37 39 40 40 41 41 42 43 44 44 44 43 43 41 40 40 39 37 36 35 35 35 36 37 38 39 40
44 44 43 42 42 42 41 41 40 40 40 40 40 40 40 39 39 39 39 39 38 38 37 38 39 40 41 42 43 43 44 45 46 47 48 49 48 46 45 47 48 48 48 49 50 50 50 49 48 48 47 45 42 40 39 37 37 38 38 37 38 41 41 41 43 44 44 44 45 45 45 44 44 42 42 41 40 38 37 38 38 39 39 39 40 40 41
44 44 44 43 42 42 42 42 41 40 40 40 40 40 40 40 39 39 39 38 38 37 36 36 37 38 38 39 41 43 43 44 45 46 48 49 49 48 46 47 48 48 48 49 50 51 50 49 49 48 48 47 45 43 41 41 41 41 40 40 41 43 43 44 45 46 46 45 46 47 47 45 44 42 41 41 40 40 41 42 42 42 42 42 43 42 41
44 44 44 43 43 42 42 42 42 41 40 40 40 40 40 40 39 39 39 38 38 37 36 35 36 37 37 37 40 41 41 41 42 43 44 46 48 49 48 48 48 49 49 49 50 51 51 51 50 49 49 49 48 46 45 43 43 43 43 43 43 43 44 46 47 47 47 47 48 48 48 46 44 42 40 41 42 42 43 45 45 44 43 43 43 42 42
44 44 44 44 43 42 42 42 42 42 42 41 41 41 40 40 40 39 39 39 38 38 37 36 36 36 37 38 38 39 41 42 42 42 42 44 46 48 48 47 48 50 51 51 51 52 52 51 51 50 50 50 50 49 48 46 46 46 45 44 43 44 45 47 47 47 47 48 48 48 46 45 45 44 43 44 44 45 45 45 45 45 44 43 42 42 42
44 44 44 44 43 43 42 42 41 41 42 42 42 41 41 40 40 40 39 39 38 38 38 37 35 35 36 37 37 38 40 42 42 42 42 43 44 46 47 47 46 47 50 53 54 53 53 52 52 51 51 52 52 52 51 50 49 48 46 45 45 46 47 47 47 47 48 49 48 48 47 47 47 47 47 46 46 46 46 46 46 46 45 43 43 43 42
44 44 45 45 44 43 42 41 41 40 40 41 41 41 41 40 39 38 38 37 37 37 37 36 35 34 34 35 37 38 39 40 41 42 42 42 42 44 46 47 47 46 47 50 52 53 53 53 52 52 51 52 54 54 53 52 52 50 47 46 47 48 50 49 48 48 49 50 50 50 49 49 49 49 48 47 46 45 45 45 46 45 44 43 43 43 42
46 45 46 46 45 44 42 41 40 39 39 40 40 40 39 38 37 37 36 36 36 36 36 35 34 32 32 33 35 36 37 38 39 40 41 41 42 43 45 47 47 47 47 48 49 52 53 52 53 52 52 53 55 56 55 55 54 51 48 47 48 49 52 52 50 49 50 51 52 52 50 49 48 48 48 47 46 46 46 46 45 43 43 43 43 42 42
48 47 46 46 46 45 42 40 39 38 39 39 39 38 37 36 36 35 35 35 35 35 35 35 33 32 31 31 33 34 35 36 37 38 39 40 41 42 44 46 47 48 49 49 49 50 50 51 53 53 52 53 56 58 58 57 55 51 49 49 50 50 51 51 52 52 53 53 53 52 50 48 48 48 48 48 47 47 46 45 43 43 44 45 44 43 42
49 48 48 47 47 45 43 41 39 38 38 39 38 37 36 35 35 35 34 34 34 34 34 34 33 33 32 32 33 34 34 35 36 36 37 39 40 40 42 43 45 47 49 50 50 49 49 51 53 53 52 54 57 60 61 59 55 51 50 51 51 50 49 50 51 52 54 53 50 49 48 48 47 47 47 48 47 46 44 42 41 43 45 46 44 43 42
50 49 49 48 48 46 44 42 40 39 39 38 37 36 35 35 34 34 33 33 33 33 33 33 34 34 33 33 35 35 34 34 35 36 36 38 38 39 40 41 43 45 46 47 49 50 50 51 52 53 54 55 58 61 61 58 53 51 51 52 52 50 49 50 51 51 52 51 49 48 48 47 46 46 46 46 45 43 40 39 40 44 46 45 43 42 42
50 49 49 49 49 47 45 43 42 41 39 38 36 35 35 34 34 33 32 32 32 32 32 32 33 34 34 34 37 37 36 36 37 37 36 38 38 38 39 41 41 42 43 44 47 49 50 51 52 54 55 56 59 61 58 54 52 53 53 52 52 51 50 51 51 50 48 47 48 48 48 47 46 45 45 45 43 41 38 37 40 44 45 43 41 42 41
51 50 49 49 49 48 46 44 43 42 40 38 37 36 35 34 34 33 32 32 31 31 32 32 33 34 35 36 38 39 39 39 40 39 38 39 39 40 40 41 40 41 42 43 45 46 47 49 52 54 56 58 59 58 55 52 53 54 54 52 51 50 49 50 51 50 47 45 47 48 47 45 45 44 44 43 41 40 38 38 40 43 43 41 41 41 41
51 50 48 48 49 49 48 46 44 42 40 39 38 36 35 35 35 34 34 33 32 32 32 32 32 34 35 36 38 40 40 40 40 41 41 41 41 41 42 42 42 42 43 43 43 44 45 48 51 54 56 57 56 54 53 53 53 53 53 51 50 50 50 50 50 48 45 44 44 45 44 43 43 42 41 40 40 39 39 39 40 41 41 40 40 40 40
50 49 47 47 48 49 49 48 45 43 41 40 38 37 36 36 35 35 35 34 34 33 33 33 33 34 36 36 38 40 41 40 41 42 42 43 43 43 43 43 43 44 45 44 43 43 45 48 51 52 54 54 52 51 52 53 53 52 52 50 49 49 50 50 47 45 44 43 44 43 41 41 42 41 40 39 39 39 39 39 39 39 38 38 38 38 38
48 47 45 45 47 49 50 48 46 44 42 40 38 38 37 36 36 36 36 35 35 33 33 33 34 35 36 36 38 41 42 41 41 42 43 44 45 45 45 46 46 46 46 45 43 42 43 44 45 46 47 47 47 47 48 49 49 49 49 49 48 47 47 46 44 42 42 44 44 42 40 41 41 40 39 39 39 38 38 37 37 36 35 35 35 34 32
45 44 43 44 46 47 48 47 46 44 42 40 39 39 38 37 36 36 35 35 34 33 33 34 35 37 37 37 38 43 44 42 41 43 44 45 46 46 46 47 46 44 44 42 38 35 35 35 35 35 35 35 35 36 38 41 43 44 44 46 47 46 45 45 43 42 42 43 43 41 40 41 40 38 38 38 38 37 37 35 34 33 33 32 31 29 29
41 41 41 42 43 45 46 46 45 43 42 41 40 39 38 37 36 34 33 33 32 33 34 35 36 38 38 38 39 43 46 45 44 45 46 46 47 47 48 47 45 42 40 35 31 29 30 29 27 24 21 21 23 27 30 34 38 39 40 43 45 46 45 44 43 43 43 43 41 41 41 40 37 35 36 37 37 36 35 33 33 32 30 28 27 28 29
40 40 40 41 41 42 44 44 44 43 42 42 40 39 37 35 34 32 32 33 33 34 35 36 37 38 39 39 41 44 47 46 45 46 46 45 45 45 45 44 42 40 35 29 27 27 27 25 22 18 16 18 20 23 26 28 32 34 37 40 42 43 42 42 43 43 43 42 41 40 39 36 33 33 35 36 35 34 33 31 30 28 25 25 27 29 31
38 39 38 39 39 40 41 42 42 42 41 40 39 37 34 32 32 32 33 34 35 35 35 37 38 40 41 42 43 45 46 45 44 43 42 40 39 40 39 38 36 32 28 26 25 24 23 22 19 17 18 20 22 24 25 26 28 31 35 38 39 39 39 40 42 42 40 40 39 37 35 33 33 33 35 35 33 31 29 28 26 24 24 26 28 29 30
36 36 36 36 37 38 39 39 39 39 38 36 34 32 31 31 33 35 35 34 34 35 36 38 40 41 42 42 42 41 39 38 38 37 35 34 33 34 34 32 29 27 27 27 25 23 22 21 19 18 19 21 22 24 25 25 26 29 32 33 34 34 35 37 38 38 38 38 37 36 34 34 33 32 31 30 28 26 25 23 22 23 25 27 29 29 28
35 35 35 35 35 35 35 36 35 34 33 31 30 30 31 32 33 34 33 32 33 35 37 38 38 36 33 31 29 26 24 23 24 25 27 27 28 29 30 29 28 30 31 29 26 23 23 21 19 18 19 20 21 23 24 23 24 26 28 30 31 32 32 33 34 35 36 37 36 35 34 34 32 30 28 27 25 23 23 22 23 25 27 28 28 28 27
34 34 34 34 33 33 32 32 30 29 29 29 30 31 31 31 32 33 33 33 33 33 32 30 27 23 20 18 17 17 17 17 17 19 20 22 24 27 29 30 30 32 32 28 24 22 21 22 21 20 19 19 20 22 22 22 23 24 26 28 29 29 29 30 31 32 32 33 33 33 33 32 30 29 27 26 24 24 24 24 25 26 27 28 28 27 26
32 33 33 32 31 30 30 29 28 28 28 28 29 29 30 30 32 33 32 30 27 23 20 16 14 13 13 13 14 15 16 17 16 17 19 20 21 24 27 29 29 30 29 26 22 19 19 20 22 21 20 19 20 21 22 22 22 22 23 24 26 27 27 28 28 29 30 30 30 31 30 29 28 27 26 25 25 25 25 25 26 27 27 28 27 26 26
30 31 31 30 29 29 29 28 28 28 28 27 28 30 30 30 28 26 23 19 16 13 11 10 10 10 11 12 12 13 14 14 12 12 13 14 16 21 24 24 24 25 25 23 20 19 20 20 21 21 20 19 19 20 22 21 20 19 19 21 24 26 26 26 26 26 27 27 27 27 27 26 25 24 24 25 25 26 26 27 27 27 28 27 26 26 26
28 28 29 28 27 28 28 28 27 28 29 29 28 26 24 21 19 16 14 13 12 10 9 9 10 10 10 10 10 10 10 9 8 9 12 15 19 21 20 17 18 22 23 21 18 18 19 19 19 20 20 20 19 18 17 17 18 19 19 21 22 24 25 24 23 23 22 22 23 24 24 24 24 24 24 25 26 27 27 27 27 27 27 26 26 25 25
26 26 26 26 26 27 28 29 29 28 27 24 21 17 15 15 15 14 14 13 11 9 9 10 10 10 9 9 8 9 9 9 9 10 11 13 15 15 12 9 11 17 22 19 17 17 18 18 18 19 19 19 16 13 12 14 16 18 19 21 22 23 24 23 21 20 20 20 20 22 22 23 23 23 24 25 25 26 26 26 26 26 26 26 25 25 24
23 24 25 26 27 28 28 28 26 23 19 17 15 15 16 16 16 15 13 11 10 10 10 9 8 8 8 8 7 7 8 8 8 7 8 8 8 8 7 5 7 13 18 18 16 17 18 18 17 16 15 14 12 11 11 13 15 16 16 18 20 20 20 20 19 18 19 19 20 21 22 22 23 23 24 24 25 25 25 24 24 24 24 25 25 24 23
23 23 25 25 24 23 22 21 20 19 18 18 18 17 17 17 15 14 13 12 11 10 9 9 8 8 6 5 4 4 6 7 7 6 7 8 7 8 8 7 7 9 12 12 12 13 15 14 13 12 12 13 14 14 14 15 16 15 14 14 15 16 16 17 18 18 18 19 19 20 20 21 21 22 22 23 23 23 22 22 23 23 24 24 24 23 23
Wind_Direction
248 247 246 244 243 241 239 238 237 235 232 230 230 229 228 229 228 224 222 223 225 226 226 226 226 223 221 216 210 210 209 210 218 224 222 220 223 222 218 216 214 212 210 210 209 206 205 210 211 208 213 223 232 239 245 249 250 250 253 256 257 258 260 259 261 264 263 262 263 268 275 279 278 280 286 289 288 288 289 289 282 277 280 284 283 284 286
247 247 246 245 244 243 240 239 238 236 234 232 231 230 230 230 230 226 222 221 224 226 227 227 226 224 221 218 215 215 213 210 217 224 222 217 220 221 217 214 213 211 208 209 210 205 203 208 208 208 214 219 225 233 237 239 243 247 251 253 252 254 257 256 258 261 259 255 258 263 270 275 278 280 283 283 282 283 285 284 279 276 280 281 280 283 288
247 246 246 245 245 244 242 240 239 237 236 234 232 231 231 232 232 229 224 221 223 225 227 227 227 225 222 221 219 221 220 215 217 223 222 219 220 220 218 216 214 211 208 210 213 209 203 205 210 214 216 218 221 226 229 233 237 242 247 251 251 251 254 256 257 257 255 252 254 261 268 272 275 276 275 275 278 280 282 282 279 277 278 276 275 279 284
246 246 245 245 244 244 243 242 240 239 237 235 233 233 232 233 233 232 228 224 224 226 227 227 228 226 223 220 219 222 225 222 222 223 222 221 221 217 216 220 219 215 211 210 214 213 207 206 213 218 218 220 224 227 230 235 240 243 248 255 257 256 255 256 258 259 260 260 261 263 266 269 273 274 274 274 277 279 279 278 276 277 277 275 277 283 285
247 246 245 244 244 244 244 243 241 240 238 237 235 234 234 234 234 235 233 229 228 229 230 230 231 231 227 223 220 222 225 225 225 225 223 224 224 218 215 219 220 220 218 215 214 216 213 209 213 220 224 225 227 231 234 239 243 245 251 259 262 262 262 262 261 260 261 263 266 267 267 268 272 274 275 275 276 277 279 278 278 279 280 282 286 288 288
249 247 245 244 244 244 244 243 242 241 239 238 237 236 236 235 234 235 234 232 231 230 231 233 233 234 233 229 225 225 225 224 223 223 224 227 229 223 219 219 219 218 220 221 220 220 219 215 215 220 228 232 234 238 240 242 243 246 252 260 262 262 265 268 267 265 265 266 268 271 273 273 274 274 275 275 275 277 279 280 280 279 279 280 282 284 285
251 249 247 245 244 244 244 243 242 241 240 239 238 238 237 235 235 235 234 232 232 230 230 231 231 233 233 231 228 228 228 228 226 223 223 227 231 227 222 223 223 220 220 222 223 224 224 222 221 223 229 235 239 243 247 248 250 251 254 259 262 264 265 267 267 268 270 271 273 275 277 276 274 273 274 274 275 276 276 276 278 279 279 279 279 281 285
253 251 249 247 245 244 244 243 243 242 241 240 240 239 238 236 236 236 235 233 232 230 229 229 227 228 230 229 228 228 230 231 231 229 227 229 234 234 228 226 227 227 225 224 224 225 225 225 225 226 230 236 240 244 248 252 256 258 260 263 266 267 267 267 268 269 270 272 274 275 276 275 274 275 276 276 277 276 275 274 274 276 277 278 279 282 287
253 252 251 249 247 245 244 243 243 242 241 239 239 239 239 238 237 236 236 236 234 232 231 230 228 227 227 226 225 225 228 230 230 231 232 233 238 240 236 232 231 230 230 230 229 229 229 229 228 227 229 234 239 244 248 251 255 259 263 266 268 270 271 271 271 271 270 271 271 272 274 275 277 278 279 280 279 277 274 273 272 274 277 279 281 285 289
253 252 251 250 249 247 246 244 243 242 241 240 240 240 239 238 238 237 237 237 237 234 233 233 232 231 230 229 227 225 227 229 228 228 231 235 239 242 240 236 235 234 233 234 235 236 236 237 236 234 232 234 237 241 245 249 253 257 261 265 268 270 272 272 270 270 269 268 267 269 270 271 274 277 276 275 273 271 269 269 272 276 279 280 282 286 290
254 253 251 250 249 248 247 246 244 243 241 241 240 240 239 238 239 239 238 238 238 236 234 234 234 235 234 233 232 230 229 231 231 229 229 232 237 241 242 240 239 238 237 238 240 241 243 245 245 244 242 241 242 243 246 251 254 258 262 266 269 271 272 271 269 268 267 266 266 267 267 268 271 271 268 268 269 269 270 272 275 278 278 280 282 286 290
255 254 252 250 249 248 247 246 245 244 242 241 241 241 240 239 238 238 238 238 238 237 236 235 234 236 237 236 235 235 234 234 234 234 232 232 234 238 241 243 243 244 242 240 241 244 246 249 251 252 252 251 252 253 254 256 259 262 264 267 270 271 272 271 270 269 268 268 269 269 268 268 269 266 264 266 269 271 273 275 276 276 277 280 284 287 290
255 254 253 252 250 249 247 246 245 245 243 242 241 241 240 239 238 237 236 237 238 237 237 236 235 235 237 237 237 237 237 237 238 238 238 237 238 238 240 242 245 248 248 246 245 246 248 250 253 256 257 258 257 257 258 258 260 261 263 266 269 271 272 273 273 272 271 271 272 272 272 271 270 269 269 268 268 271 273 273 273 273 276 279 283 287 291
255 254 253 253 251 250 248 246 245 244 244 243 242 241 240 239 238 237 237 236 237 237 236 237 237 236 236 238 238 238 238 238 239 240 240 240 241 242 244 247 249 252 254 254 253 252 253 255 258 260 261 262 261 259 258 259 258 259 261 265 267 269 271 273 275 276 276 276 275 274 274 274 275 275 273 270 270 272 272 272 272 274 276 279 282 285 289
254 254 253 252 252 251 249 247 245 244 244 243 242 242 241 240 238 238 237 237 237 237 236 237 238 238 237 238 239 240 240 239 239 240 240 241 242 244 248 252 255 256 258 259 259 258 259 261 262 262 262 262 263 261 260 261 261 261 262 263 265 265 267 269 272 273 275 276 277 277 277 277 278 278 276 274 273 273 273 273 275 277 280 282 284 286 287
252 253 253 252 251 251 250 248 246 245 244 243 242 242 242 241 239 238 237 237 237 237 237 237 238 239 239 239 238 239 241 241 241 241 242 242 242 244 247 251 254 257 259 260 261 261 262 261 261 261 259 258 259 260 261 262 262 262 262 262 263 264 264 265 266 269 271 273 274 275 275 275 275 275 274 274 273 273 274 275 277 280 283 285 287 288 287
251 251 252 251 251 250 250 249 247 246 244 243 242 241 241 241 240 239 238 237 237 238 237 237 238 238 239 239 239 239 240 241 242 243 244 244 244 245 246 248 251 254 256 259 260 261 260 259 259 258 258 257 256 257 259 261 261 261 261 261 262 263 263 263 264 266 269 270 271 271 272 273 273 271 271 272 274 275 276 278 281 283 285 286 287 286 286
251 251 250 250 250 250 249 249 248 246 245 243 242 241 241 240 240 240 240 239 239 239 238 237 237 238 238 239 240 240 240 240 241 242 244 245 245 246 247 247 249 252 253 255 257 258 258 257 256 256 258 258 258 259 260 260 261 262 261 259 260 261 262 262 263 264 265 267 269 271 271 271 272 273 275 276 277 279 282 285 286 285 284 284 283 282 284
250 250 250 249 249 249 248 248 247 247 245 243 242 241 241 240 240 240 240 240 241 241 240 238 237 238 238 239 240 240 240 240 240 241 242 243 244 246 247 247 246 248 249 251 252 253 253 253 252 252 254 256 258 259 260 261 261 261 260 259 260 262 264 265 266 266 268 268 269 271 272 274 277 279 280 280 280 282 285 286 285 285 286 286 284 284 288
248 249 249 248 248 247 247 247 246 246 245 243 242 241 241 240 239 239 239 240 240 241 241 239 238 239 239 239 239 240 240 240 240 240 240 241 241 242 245 246 244 243 244 246 248 250 251 251 251 250 250 252 254 257 258 259 260 259 258 258 259 261 264 267 268 268 269 271 273 275 277 278 279 280 280 280 280 283 285 284 284 289 290 289 288 290 292
246 247 247 247 246 245 245 245 245 245 245 244 242 241 240 240 239 238 238 238 238 240 241 240 239 239 238 237 238 239 239 239 239 239 239 240 240 240 241 244 244 243 242 243 245 248 249 251 253 253 252 251 252 254 256 257 258 257 256 256 257 259 261 265 267 268 269 271 274 276 277 278 279 281 280 279 279 280 281 283 287 291 292 291 292 294 296
245 245 245 245 245 243 243 243 243 243 244 244 242 241 240 239 239 238 238 238 238 239 241 241 240 240 240 239 238 238 239 239 240 240 240 241 241 240 241 242 243 244 244 244 244 245 247 249 252 253 254 253 253 254 256 258 258 258 256 253 253 255 258 261 263 265 268 269 272 274 275 277 279 279 278 280 281 282 283 287 291 292 293 293 295 298 300
243 243 243 243 243 242 240 240 240 241 241 242 242 242 240 240 239 238 238 237 236 237 238 238 238 239 240 240 239 239 240 241 241 241 241 242 242 242 242 243 244 245 246 246 245 245 246 247 250 251 252 251 251 252 253 256 258 259 257 254 251 250 252 255 256 259 263 266 270 272 274 276 277 278 280 283 284 286 288 291 292 293 294 295 297 299 300
242 242 241 241 241 240 239 238 238 238 239 240 241 241 241 240 239 238 238 237 236 237 238 237 237 238 239 240 240 240 240 240 241 242 242 242 243 244 245 245 246 246 247 247 248 248 247 247 248 250 251 250 250 249 249 250 253 254 254 253 250 249 250 250 252 255 258 262 266 269 271 273 276 279 282 284 285 287 288 288 289 290 291 291 292 293 294
241 241 240 239 239 239 238 237 237 237 237 238 239 240 240 240 239 238 238 237 237 237 238 238 237 237 238 240 240 239 239 239 239 240 241 242 242 244 246 247 247 247 248 249 250 251 251 250 250 251 252 252 250 249 247 247 248 249 250 248 246 247 249 248 250 253 255 258 261 265 268 272 276 279 282 284 287 288 287 287 289 290 291 291 291 292 292
241 240 239 238 238 237 237 237 237 236 237 237 238 238 239 239 239 239 239 238 238 238 239 240 240 238 238 239 240 239 239 239 239 240 241 242 242 242 243 245 247 248 248 249 250 251 252 252 253 253 254 254 252 250 248 248 247 248 248 247 246 247 248 248 250 254 255 256 258 261 265 270 275 278 281 283 285 287 287 288 289 291 292 294 294 294 294
240 239 239 238 237 237 237 236 236 236 236 237 238 238 239 239 240 240 240 239 239 239 238 240 241 240 239 240 242 242 242 242 241 241 242 243 244 244 243 244 245 246 246 247 249 250 251 252 252 253 254 254 254 253 251 249 249 248 248 249 250 251 250 250 251 252 253 256 258 261 264 267 271 273 275 276 279 281 282 284 288 291 294 295 295 294 293
239 238 238 237 237 237 237 237 236 236 236 238 239 240 240 241 241 241 241 240 240 240 240 241 243 243 241 243 245 245 245 245 244 243 242 242 242 243 244 244 245 246 246 246 246 247 249 250 252 253 253 254 255 255 253 251 250 250 249 250 250 251 252 252 252 252 253 255 258 261 263 266 267 269 271 273 276 278 281 285 289 291 292 292 292 291 289
238 237 237 237 236 237 238 238 237 237 238 239 241 241 242 242 242 243 243 243 242 242 242 242 244 245 245 246 247 247 247 247 247 247 246 245 244 244 244 244 244 244 246 247 247 247 248 249 250 252 253 254 255 255 255 253 251 251 251 250 250 249 250 251 252 252 254 255 256 257 260 262 264 266 269 273 277 279 282 286 287 288 288 289 289 288 287
238 237 236 235 235 236 237 237 238 238 239 240 242 243 242 243 243 244 244 244 244 244 244 243 244 245 247 248 249 249 249 249 249 250 250 249 248 247 246 245 245 244 243 245 247 248 249 249 250 251 252 255 256 255 255 254 253 252 251 251 250 250 250 251 252 253 254 256 258 258 260 264 267 268 271 275 278 279 281 282 283 285 287 288 288 287 286
235 235 235 234 234 234 235 236 237 238 239 241 242 242 242 243 244 245 245 245 245 245 244 243 242 242 244 247 249 251 252 251 250 251 251 250 249 249 248 247 247 246 245 245 245 247 248 249 249 248 249 252 254 255 254 254 253 253 253 252 252 251 251 252 254 255 255 257 260 262 265 269 270 270 272 275 277 279 280 282 284 285 285 284 283 284 286
233 233 233 233 232 232 232 233 235 236 238 239 240 241 241 243 244 245 246 245 245 244 242 241 239 238 241 244 247 250 253 253 253 252 253 252 252 251 250 249 249 249 249 248 247 247 249 250 250 249 247 248 250 253 254 253 254 254 254 254 253 252 253 254 255 255 257 258 261 264 268 270 270 270 272 274 276 279 280 281 283 283 281 280 280 283 287
231 231 231 231 230 230 230 230 232 234 235 236 238 239 239 241 243 245 247 247 246 244 242 240 238 237 238 243 248 250 252 255 255 255 256 255 254 254 254 253 252 251 251 252 252 251 249 249 250 251 249 247 247 250 252 253 255 255 255 255 254 254 254 255 255 256 259 261 262 264 266 267 266 267 269 271 273 275 277 279 280 279 278 279 283 286 289
230 229 229 229 228 228 227 228 230 232 233 234 235 236 236 238 241 243 246 248 248 246 244 241 239 238 240 245 250 251 253 255 256 256 257 258 257 256 257 256 255 254 254 255 255 254 252 250 250 251 250 249 247 247 250 254 256 256 255 255 256 255 254 255 255 256 259 263 266 267 267 266 267 268 269 271 272 274 277 279 279 278 280 283 287 290 291
229 228 227 226 226 225 225 226 228 230 231 231 233 234 235 236 238 241 244 246 247 247 246 244 242 242 242 246 252 253 253 254 256 256 257 260 261 260 260 260 260 259 258 258 257 256 255 255 253 251 250 249 248 249 253 256 257 256 255 255 256 256 255 255 255 256 258 262 265 267 268 269 270 271 272 273 275 277 279 279 278 279 282 287 289 289 289
228 227 225 224 224 223 223 224 226 228 229 230 231 233 234 236 237 239 242 245 246 247 247 246 246 246 246 248 254 257 255 255 257 259 259 261 263 263 263 264 264 263 263 261 261 260 259 258 256 254 251 250 250 253 256 256 254 253 253 253 254 256 256 256 256 257 257 259 262 264 266 268 270 271 272 274 276 278 279 278 277 279 282 285 285 283 282
225 225 224 223 222 221 221 223 224 225 227 229 231 233 235 236 238 239 241 244 245 246 247 246 247 249 249 249 254 259 260 259 260 261 261 262 263 263 265 266 266 267 266 265 264 264 262 260 258 256 254 253 253 254 255 253 251 251 251 250 251 252 253 253 255 257 259 258 259 261 263 265 267 269 271 273 275 276 277 276 275 276 277 278 279 279 281
222 223 222 221 220 219 220 221 222 223 226 228 230 232 235 237 239 241 242 244 245 246 247 248 248 250 251 251 254 259 261 261 262 263 264 265 265 265 266 267 268 269 270 269 268 267 265 263 261 260 258 257 255 253 252 251 250 249 247 246 246 249 250 251 251 255 257 258 258 259 261 263 265 267 269 271 273 273 273 273 274 275 276 278 280 282 284
219 220 220 220 219 219 219 220 221 222 225 227 230 233 235 238 240 242 243 244 245 247 248 249 250 252 252 253 255 259 260 260 262 264 264 265 266 266 267 268 270 270 271 271 270 268 266 265 264 263 262 260 259 256 254 251 249 247 246 245 244 245 248 250 250 250 252 255 258 259 260 261 263 266 269 271 272 272 272 274 276 277 278 280 282 285 288
215 216 217 218 217 217 218 219 220 222 225 227 230 233 236 238 241 243 245 247 248 250 250 251 252 254 254 254 256 260 261 262 263 264 263 264 265 266 266 268 269 269 270 270 269 265 262 262 263 266 268 267 263 257 251 247 245 244 243 242 242 242 244 247 250 249 249 252 256 259 261 262 264 265 267 268 268 270 273 275 277 278 279 281 284 288 292
211 213 214 214 214 214 215 217 219 222 225 228 231 234 237 240 243 246 248 250 251 252 253 253 254 255 256 257 258 261 263 264 264 263 262 262 262 263 263 263 263 264 265 265 260 254 254 256 261 268 271 266 256 249 246 244 243 241 238 237 239 240 242 245 248 250 250 252 255 257 258 260 262 264 265 266 266 268 271 274 276 279 281 284 287 291 294
206 208 209 209 210 211 213 215 217 221 224 228 231 234 238 242 245 248 251 252 252 252 253 254 255 256 258 259 259 260 261 261 260 259 259 259 259 259 260 259 259 259 259 252 244 244 249 254 257 260 256 248 243 244 245 245 242 238 234 234 236 239 240 242 245 248 250 252 253 254 255 258 262 263 263 263 264 267 270 273 275 278 281 285 289 292 293
202 204 205 205 207 209 211 213 217 220 224 228 232 236 239 243 246 248 249 249 250 251 253 255 257 258 258 259 258 257 257 257 257 256 256 256 256 257 256 255 255 254 246 235 231 236 244 248 249 245 240 239 241 242 242 241 237 232 230 231 234 236 237 239 242 245 247 249 251 254 259 261 261 259 258 260 263 267 270 272 274 277 280 284 287 288 288
198 200 201 202 204 206 209 211 215 219 224 228 232 235 238 240 242 243 245 248 250 253 254 255 256 257 258 259 259 258 258 257 255 251 249 250 252 252 250 249 246 238 225 217 219 226 234 239 242 239 236 238 241 241 240 237 233 230 229 230 231 233 234 235 238 241 244 248 251 256 259 259 258 257 259 262 265 268 271 273 274 277 279 282 283 283 283
195 196 197 198 200 203 206 210 213 218 222 226 228 231 233 235 238 242 246 248 250 252 254 256 258 260 261 261 259 254 249 248 246 242 241 245 248 245 240 237 230 221 213 211 215 220 225 230 233 234 236 239 240 240 237 233 231 231 231 229 230 233 235 235 238 241 244 247 250 252 255 257 261 263 266 268 271 273 275 274 274 276 278 280 281 281 281
192 192 193 195 197 199 203 207 210 213 217 220 223 226 229 233 237 241 244 248 250 253 257 260 261 260 256 251 245 239 239 245 247 240 236 239 241 237 231 226 220 214 211 212 214 217 222 229 232 232 234 237 238 237 234 229 228 232 233 231 231 233 235 236 239 243 247 250 253 254 257 261 266 269 271 273 274 273 271 271 273 275 278 278 278 279 281
190 190 191 193 194 196 199 203 206 209 212 215 218 221 226 230 235 239 244 249 252 253 253 252 249 246 244 240 237 240 248 254 253 245 241 242 239 231 222 215 212 211 212 214 216 217 223 230 235 235 235 235 233 235 236 232 226 226 230 232 233 235 238 240 242 244 247 250 253 255 258 263 268 270 270 269 267 266 268 271 274 276 276 275 275 278 283
188 188 189 191 192 195 198 201 203 205 208 211 215 220 226 230 235 240 245 245 239 230 224 220 221 228 236 240 240 244 251 255 252 245 236 227 218 212 209 209 213 218 219 219 221 222 222 224 229 235 239 237 233 237 243 239 227 220 226 234 236 238 242 245 244 244 246 250 255 259 264 268 270 267 263 261 262 266 270 272 274 274 273 273 275 279 283
186 187 189 191 193 195 196 197 199 202 207 211 215 220 225 228 230 229 221 209 200 194 197 209 222 231 240 244 243 242 244 247 247 232 213 203 202 207 211 218 226 224 219 215 218 223 225 227 230 235 241 244 242 240 237 229 222 223 232 238 239 242 247 251 253 256 260 265 267 268 268 267 264 262 261 262 265 269 271 272 272 272 272 272 275 280 282
185 187 190 191 192 192 192 194 198 203 206 208 209 209 209 208 204 195 186 183 188 198 209 220 229 232 231 230 230 230 231 236 238 225 209 205 210 214 217 223 224 214 208 209 219 230 234 236 236 238 242 246 244 232 214 210 218 231 239 242 245 250 256 261 265 270 270 268 264 261 259 257 258 260 263 265 268 269 270 271 271 271 272 275 277 279 280
184 187 190 190 190 190 192 195 197 197 192 185 181 182 184 184 180 177 178 186 199 211 217 221 223 221 218 219 228 233 228 223 217 195 177 180 199 208 207 212 212 205 204 213 227 236 238 239 239 239 241 238 228 218 216 223 231 237 242 245 249 254 258 260 262 262 259 256 255 255 255 257 259 261 263 265 266 267 267 269 271 273 276 278 278 278 278
182 187 189 189 188 186 186 184 179 172 166 164 167 172 176 174 173 176 186 194 199 206 210 207 205 208 207 199 195 192 181 177 173 163 157 166 186 203 209 213 212 207 209 218 228 234 235 233 227 223 226 225 221 222 230 236 237 238 241 244 246 249 251 252 253 253 254 255 256 258 260 262 263 265 266 267 268 268 268 271 274 277 278 279 278 278 280
Height
5814 5815 5817 5819 5820 5821 5823 5825 5826 5828 5830 5831 5833 5834 5836 5837 5838 5841 5843 5844 5844 5846 5847 5849 5851 5854 5855 5857 5859 5860 5862 5864 5864 5864 5867 5871 5873 5874 5874 5876 5878 5880 5882 5882 5883 5883 5884 5884 5884 5885 5887 5887 5888 5889 5890 5891 5892 5894 5896 5896 5896 5897 5898 5898 5899 5898 5898 5898 5897 5897 5898 5897 5897 5897 5897 5896 5896 5895 5894 5894 5893 5893 5892 5891 5890 5890 5891
5809 5811 5813 5815 5816 5818 5819 5821 5823 5824 5826 5828 5829 5831 5832 5833 5835 5837 5839 5840 5842 5843 5844 5845 5847 5849 5851 5853 5855 5855 5857 5860 5860 5860 5864 5867 5869 5870 5871 5873 5874 5876 5878 5879 5880 5881 5882 5882 5882 5883 5883 5883 5884 5885 5886 5887 5889 5890 5892 5892 5892 5893 5894 5894 5895 5896 5896 5896 5896 5895 5895 5895 5895 5895 5895 5894 5893 5892 5892 5892 5891 5890 5890 5889 5888 5887 5888
5805 5807 5809 5810 5812 5813 5815 5817 5819 5820 5822 5824 5826 5827 5829 5830 5831 5833 5836 5838 5839 5839 5840 5841 5843 5846 5848 5850 5852 5853 5855 5857 5857 5858 5861 5865 5866 5868 5869 5870 5870 5872 5874 5876 5877 5878 5879 5879 5879 5880 5881 5880 5880 5881 5882 5883 5884 5886 5887 5887 5888 5889 5890 5891 5892 5893 5894 5895 5895 5894 5893 5892 5892 5893 5893 5892 5890 5889 5889 5889 5888 5887 5887 5886 5886 5886 5886
5800 5802 5804 5806 5807 5809 5810 5812 5815 5816 5818 5820 5822 5824 5826 5827 5828 5830 5832 5834 5835 5835 5836 5838 5840 5842 5843 5846 5848 5849 5851 5854 5855 5856 5859 5862 5862 5864 5865 5867 5868 5869 5870 5871 5872 5874 5876 5876 5875 5876 5877 5878 5878 5878 5879 5879 5879 5881 5883 5884 5885 5886 5887 5888 5889 5890 5891 5892 5892 5892 5891 5889 5889 5889 5890 5889 5888 5887 5886 5885 5885 5884 5883 5883 5883 5883 5882
5795 5797 5799 5801 5802 5804 5806 5808 5810 5812 5814 5816 5819 5820 5822 5823 5825 5827 5829 5830 5832 5832 5834 5836 5837 5839 5840 5843 5845 5845 5846 5849 5851 5854 5856 5857 5857 5859 5861 5862 5865 5867 5868 5868 5869 5870 5872 5873 5873 5873 5873 5875 5875 5875 5876 5876 5876 5877 5880 5881 5882 5884 5885 5885 5886 5887 5887 5888 5888 5887 5887 5887 5886 5885 5886 5886 5885 5884 5882 5882 5881 5880 5879 5879 5880 5878 5878
5789 5791 5794 5796 5797 5799 5801 5803 5805 5807 5810 5812 5814 5816 5818 5819 5821 5823 5824 5826 5828 5830 5831 5833 5835 5836 5838 5840 5842 5842 5843 5844 5847 5850 5852 5852 5853 5855 5857 5858 5860 5863 5864 5865 5866 5867 5868 5870 5871 5871 5870 5871 5871 5872 5873 5873 5873 5874 5876 5878 5879 5881 5882 5882 5882 5883 5884 5884 5884 5883 5884 5883 5883 5882 5882 5882 5881 5881 5879 5878 5877 5877 5876 5876 5876 5875 5875
5784 5786 5788 5790 5792 5794 5796 5798 5800 5803 5805 5808 5810 5812 5813 5815 5817 5818 5820 5822 5824 5826 5828 5829 5831 5833 5834 5837 5839 5840 5840 5841 5843 5845 5847 5847 5848 5850 5853 5854 5856 5858 5859 5860 5862 5863 5865 5867 5868 5869 5868 5867 5867 5867 5867 5868 5868 5870 5873 5875 5876 5878 5879 5879 5879 5880 5880 5880 5880 5880 5879 5878 5878 5878 5877 5877 5878 5878 5876 5875 5874 5873 5872 5872 5872 5871 5871
5778 5780 5782 5784 5787 5789 5791 5793 5795 5797 5800 5803 5805 5806 5808 5810 5812 5813 5816 5818 5820 5822 5823 5824 5826 5828 5829 5831 5834 5836 5837 5839 5840 5842 5844 5845 5845 5847 5849 5851 5851 5853 5854 5855 5856 5858 5859 5861 5863 5865 5865 5864 5864 5864 5864 5864 5864 5865 5868 5870 5872 5873 5874 5875 5876 5876 5877 5877 5877 5876 5875 5873 5873 5874 5874 5874 5874 5874 5873 5872 5871 5869 5867 5867 5867 5866 5867
5773 5774 5777 5779 5781 5783 5785 5787 5790 5792 5795 5798 5799 5800 5803 5805 5807 5809 5812 5813 5815 5817 5818 5820 5822 5822 5823 5825 5828 5830 5831 5833 5835 5837 5839 5841 5842 5843 5845 5846 5847 5848 5848 5849 5851 5852 5854 5855 5857 5860 5862 5861 5861 5861 5861 5861 5861 5862 5863 5865 5867 5868 5870 5872 5872 5872 5873 5873 5872 5872 5871 5870 5870 5871 5870 5870 5870 5870 5869 5868 5867 5865 5864 5863 5862 5862 5863
5767 5769 5771 5773 5775 5777 5780 5782 5784 5786 5789 5792 5793 5795 5797 5800 5802 5805 5807 5809 5810 5813 5814 5815 5816 5817 5819 5822 5824 5826 5826 5828 5831 5833 5835 5837 5838 5838 5839 5841 5842 5843 5843 5844 5846 5848 5849 5851 5853 5856 5858 5858 5858 5858 5858 5858 5859 5860 5861 5862 5863 5865 5866 5867 5867 5868 5869 5869 5868 5868 5867 5867 5868 5868 5867 5865 5864 5864 5864 5863 5862 5862 5861 5860 5858 5858 5859
5762 5763 5765 5767 5769 5771 5774 5776 5778 5780 5783 5786 5787 5789 5791 5794 5797 5800 5803 5804 5804 5807 5810 5811 5812 5813 5816 5818 5820 5822 5823 5825 5827 5829 5831 5833 5833 5833 5833 5835 5836 5837 5839 5841 5843 5844 5845 5847 5849 5852 5854 5854 5854 5855 5856 5857 5857 5858 5858 5859 5860 5860 5861 5861 5861 5862 5863 5863 5864 5863 5862 5864 5866 5864 5862 5861 5860 5859 5860 5859 5859 5859 5857 5856 5855 5855 5855
5756 5758 5759 5761 5763 5765 5768 5770 5772 5774 5777 5779 5781 5783 5785 5789 5792 5794 5797 5797 5798 5801 5804 5805 5808 5810 5811 5813 5815 5818 5821 5822 5824 5827 5829 5829 5829 5828 5828 5829 5829 5831 5833 5836 5838 5840 5842 5843 5845 5847 5848 5849 5851 5853 5854 5855 5855 5855 5855 5855 5855 5855 5855 5855 5856 5856 5857 5858 5858 5857 5857 5860 5861 5860 5858 5858 5856 5856 5856 5856 5855 5854 5853 5852 5852 5851 5850
5750 5752 5754 5755 5757 5759 5761 5764 5765 5767 5770 5773 5775 5777 5780 5783 5786 5787 5790 5791 5793 5796 5798 5799 5803 5806 5806 5808 5811 5814 5817 5819 5821 5824 5826 5827 5827 5825 5823 5823 5825 5826 5827 5831 5834 5836 5837 5839 5840 5842 5843 5844 5847 5848 5849 5850 5851 5851 5851 5851 5851 5851 5849 5849 5849 5849 5851 5852 5852 5851 5852 5855 5856 5856 5855 5854 5853 5852 5852 5851 5850 5850 5850 5849 5848 5847 5846
5744 5746 5748 5749 5751 5753 5755 5757 5759 5761 5764 5766 5768 5771 5774 5776 5779 5781 5784 5786 5787 5789 5791 5793 5797 5800 5801 5803 5807 5809 5812 5815 5817 5819 5821 5822 5823 5822 5820 5821 5823 5823 5824 5827 5830 5832 5834 5836 5837 5838 5838 5839 5841 5842 5843 5845 5846 5847 5847 5847 5847 5846 5845 5844 5843 5843 5844 5846 5846 5846 5847 5849 5851 5851 5849 5849 5849 5848 5847 5846 5845 5845 5846 5846 5845 5844 5843
5738 5740 5742 5743 5745 5747 5749 5751 5753 5755 5757 5760 5762 5764 5767 5770 5773 5775 5778 5780 5781 5783 5785 5788 5791 5794 5796 5799 5802 5804 5807 5809 5811 5813 5814 5816 5818 5819 5819 5820 5821 5821 5822 5825 5826 5828 5831 5832 5833 5834 5835 5835 5835 5836 5838 5839 5840 5842 5843 5843 5843 5842 5841 5841 5840 5839 5840 5841 5841 5841 5842 5844 5845 5845 5844 5844 5844 5843 5842 5841 5840 5841 5841 5842 5842 5842 5841
5732 5733 5735 5737 5739 5741 5743 5745 5747 5749 5751 5753 5756 5758 5761 5764 5767 5769 5771 5774 5775 5777 5780 5784 5786 5788 5789 5793 5797 5799 5801 5803 5805 5807 5808 5810 5813 5815 5815 5816 5816 5816 5818 5820 5822 5825 5827 5827 5828 5829 5830 5831 5831 5831 5832 5834 5835 5837 5838 5839 5838 5837 5838 5838 5837 5836 5836 5837 5837 5837 5837 5839 5840 5840 5839 5839 5839 5839 5838 5837 5837 5837 5837 5837 5837 5837 5836
5726 5727 5729 5731 5732 5735 5736 5738 5740 5743 5745 5747 5750 5752 5754 5757 5760 5762 5764 5767 5769 5770 5774 5779 5781 5781 5783 5787 5790 5793 5795 5797 5799 5800 5801 5804 5807 5808 5809 5810 5810 5811 5813 5815 5817 5819 5822 5822 5823 5824 5825 5826 5827 5827 5828 5829 5830 5832 5834 5834 5833 5832 5832 5833 5833 5832 5833 5833 5832 5832 5833 5834 5836 5836 5836 5835 5835 5834 5834 5833 5833 5834 5833 5832 5832 5831 5831
5720 5721 5723 5725 5726 5728 5730 5732 5734 5736 5739 5741 5744 5746 5748 5751 5754 5756 5758 5761 5763 5764 5768 5773 5774 5774 5777 5781 5784 5786 5788 5790 5792 5794 5795 5797 5800 5801 5801 5803 5805 5806 5808 5810 5811 5813 5815 5817 5818 5819 5820 5821 5821 5821 5823 5824 5825 5827 5829 5828 5827 5826 5827 5827 5828 5828 5829 5829 5828 5827 5828 5830 5832 5831 5832 5832 5830 5830 5830 5830 5830 5830 5829 5828 5827 5826 5826
5713 5715 5717 5719 5720 5722 5724 5726 5728 5730 5732 5735 5738 5740 5742 5745 5748 5751 5753 5756 5758 5759 5762 5765 5766 5768 5773 5776 5777 5778 5780 5783 5785 5787 5788 5790 5793 5794 5794 5796 5799 5801 5802 5803 5804 5806 5808 5810 5812 5814 5814 5815 5816 5816 5817 5819 5820 5821 5822 5822 5821 5821 5821 5822 5823 5823 5824 5824 5823 5822 5823 5826 5828 5827 5827 5827 5826 5826 5827 5827 5826 5825 5825 5824 5823 5822 5822
5707 5709 5710 5712 5714 5716 5718 5720 5722 5724 5726 5729 5732 5734 5736 5739 5742 5745 5748 5750 5752 5752 5753 5757 5761 5764 5768 5770 5770 5771 5773 5776 5778 5780 5781 5783 5785 5787 5786 5787 5791 5794 5795 5797 5798 5799 5800 5802 5804 5806 5809 5810 5811 5811 5812 5813 5814 5815 5816 5817 5817 5816 5816 5816 5817 5818 5818 5818 5818 5818 5819 5821 5822 5822 5822 5822 5822 5822 5822 5822 5821 5821 5820 5820 5819 5818 5818
5701 5703 5704 5706 5708 5710 5713 5714 5716 5718 5720 5723 5726 5729 5731 5733 5736 5739 5741 5744 5746 5745 5746 5751 5756 5758 5760 5762 5762 5764 5766 5768 5770 5773 5775 5776 5778 5780 5779 5779 5783 5787 5788 5791 5793 5792 5793 5796 5797 5799 5802 5805 5806 5806 5807 5808 5809 5810 5812 5812 5812 5812 5811 5812 5812 5813 5813 5812 5812 5813 5814 5816 5816 5816 5817 5817 5817 5818 5818 5817 5817 5817 5816 5815 5814 5814 5813
5694 5696 5698 5700 5702 5704 5707 5709 5711 5713 5714 5717 5720 5723 5725 5728 5730 5733 5736 5739 5741 5740 5741 5746 5750 5751 5753 5755 5756 5758 5760 5762 5764 5767 5769 5770 5772 5774 5773 5773 5776 5780 5782 5785 5787 5787 5788 5790 5791 5792 5796 5799 5800 5802 5802 5803 5804 5806 5807 5807 5807 5807 5807 5808 5808 5808 5807 5807 5807 5808 5809 5810 5811 5811 5811 5812 5812 5813 5813 5813 5812 5811 5811 5811 5810 5809 5808
5688 5690 5692 5694 5696 5699 5701 5703 5706 5708 5709 5711 5714 5717 5720 5722 5725 5728 5730 5733 5734 5734 5735 5739 5743 5744 5746 5748 5750 5753 5755 5757 5759 5761 5764 5765 5766 5768 5768 5768 5770 5774 5776 5778 5780 5780 5782 5784 5785 5787 5790 5792 5794 5796 5797 5798 5799 5801 5802 5802 5802 5803 5803 5803 5803 5803 5802 5802 5802 5803 5803 5804 5805 5806 5806 5807 5807 5807 5807 5808 5807 5807 5806 5806 5805 5805 5803
5681 5683 5686 5688 5690 5692 5695 5698 5700 5703 5704 5707 5709 5711 5714 5716 5719 5722 5724 5726 5729 5729 5730 5734 5737 5738 5739 5742 5746 5748 5749 5751 5753 5755 5757 5759 5761 5763 5763 5763 5764 5768 5771 5772 5772 5774 5776 5778 5780 5781 5784 5786 5788 5790 5791 5792 5794 5794 5796 5797 5796 5797 5797 5798 5798 5798 5798 5798 5799 5798 5798 5798 5799 5800 5801 5801 5801 5802 5803 5803 5803 5803 5803 5802 5801 5800 5798
5675 5677 5680 5682 5684 5686 5689 5691 5695 5697 5699 5702 5704 5706 5709 5711 5713 5716 5718 5721 5723 5725 5726 5729 5731 5733 5735 5738 5740 5741 5742 5744 5747 5748 5750 5753 5756 5758 5758 5757 5759 5763 5765 5766 5767 5767 5769 5772 5774 5776 5778 5780 5782 5784 5785 5786 5787 5788 5790 5791 5791 5791 5792 5792 5792 5793 5793 5794 5794 5793 5793 5794 5795 5795 5796 5796 5796 5797 5797 5797 5797 5797 5796 5796 5795 5794 5792
5668 5671 5673 5676 5678 5680 5683 5685 5689 5692 5694 5697 5699 5701 5703 5705 5708 5711 5713 5716 5718 5720 5722 5724 5725 5728 5731 5732 5731 5733 5736 5738 5740 5743 5745 5747 5749 5752 5752 5751 5753 5757 5759 5760 5760 5761 5763 5766 5768 5770 5772 5773 5775 5777 5779 5780 5781 5783 5784 5785 5785 5786 5787 5787 5787 5788 5788 5789 5789 5788 5789 5791 5792 5792 5792 5791 5791 5791 5790 5790 5790 5789 5789 5788 5787 5787 5786
5662 5664 5667 5670 5672 5675 5677 5680 5683 5686 5689 5691 5693 5695 5698 5700 5703 5706 5708 5711 5713 5715 5718 5718 5719 5723 5726 5726 5726 5728 5731 5732 5735 5738 5740 5741 5743 5746 5747 5746 5747 5750 5752 5753 5754 5755 5757 5759 5762 5764 5766 5766 5768 5770 5772 5774 5775 5777 5779 5780 5780 5781 5782 5782 5782 5783 5784 5784 5784 5784 5785 5787 5787 5788 5789 5788 5787 5786 5785 5784 5784 5784 5784 5783 5782 5780 5779
5655 5658 5661 5664 5666 5669 5671 5674 5678 5681 5684 5686 5688 5690 5693 5695 5698 5700 5703 5706 5708 5710 5713 5714 5715 5718 5720 5721 5722 5724 5724 5725 5728 5731 5733 5735 5736 5738 5740 5742 5742 5743 5744 5746 5747 5749 5751 5753 5756 5758 5760 5760 5761 5762 5765 5767 5769 5770 5773 5775 5776 5776 5776 5776 5778 5779 5779 5780 5780 5781 5782 5782 5781 5782 5783 5783 5782 5781 5780 5780 5780 5779 5779 5778 5777 5775 5774
5649 5652 5655 5658 5660 5663 5666 5669 5672 5676 5679 5680 5682 5684 5687 5690 5692 5695 5698 5701 5703 5706 5708 5710 5711 5713 5715 5716 5717 5717 5718 5720 5722 5724 5726 5729 5730 5731 5733 5734 5735 5736 5737 5738 5740 5742 5745 5748 5750 5752 5753 5754 5754 5755 5757 5760 5761 5764 5768 5771 5770 5769 5769 5770 5772 5773 5773 5775 5776 5776 5777 5777 5776 5776 5777 5777 5777 5777 5776 5776 5775 5774 5773 5772 5771 5769 5768
5642 5645 5648 5651 5655 5657 5660 5664 5667 5671 5673 5675 5676 5679 5682 5685 5688 5691 5694 5696 5698 5700 5703 5705 5707 5709 5710 5710 5710 5710 5712 5715 5717 5718 5720 5722 5723 5725 5726 5727 5728 5729 5729 5731 5733 5736 5738 5741 5744 5746 5748 5747 5746 5747 5750 5751 5752 5757 5763 5765 5764 5763 5762 5763 5766 5767 5768 5769 5770 5770 5771 5771 5772 5772 5772 5772 5772 5772 5772 5771 5770 5769 5767 5766 5764 5763 5762
5635 5638 5642 5645 5649 5652 5655 5659 5663 5666 5668 5669 5670 5674 5677 5681 5684 5687 5689 5691 5693 5695 5697 5700 5702 5704 5705 5705 5704 5704 5706 5709 5711 5712 5713 5714 5716 5717 5717 5719 5721 5722 5723 5725 5727 5728 5731 5734 5737 5739 5742 5741 5738 5738 5741 5742 5745 5751 5757 5759 5759 5757 5757 5758 5760 5761 5762 5763 5764 5764 5765 5766 5767 5766 5766 5766 5766 5766 5766 5765 5765 5763 5761 5759 5758 5757 5756
5628 5631 5635 5639 5643 5646 5650 5654 5657 5660 5662 5663 5666 5670 5674 5677 5679 5682 5684 5686 5688 5690 5692 5694 5697 5699 5700 5699 5698 5699 5700 5702 5704 5706 5707 5708 5709 5709 5710 5712 5714 5715 5716 5718 5719 5722 5726 5728 5728 5731 5735 5735 5732 5730 5731 5734 5738 5746 5751 5752 5751 5751 5751 5753 5754 5755 5755 5757 5758 5759 5760 5761 5761 5761 5760 5760 5760 5760 5760 5759 5758 5756 5754 5752 5751 5752 5751
5620 5624 5628 5632 5636 5641 5645 5649 5652 5655 5657 5659 5662 5666 5670 5672 5675 5677 5679 5680 5682 5684 5686 5689 5692 5694 5695 5694 5693 5694 5696 5697 5698 5700 5700 5700 5701 5703 5704 5705 5707 5707 5709 5711 5713 5716 5719 5720 5720 5723 5727 5727 5725 5722 5722 5726 5734 5741 5744 5744 5744 5745 5746 5747 5748 5748 5748 5750 5752 5754 5755 5755 5755 5755 5755 5754 5754 5754 5754 5753 5752 5749 5746 5745 5745 5745 5746
5613 5617 5621 5626 5631 5635 5640 5644 5647 5650 5652 5655 5659 5662 5665 5668 5670 5672 5674 5676 5678 5679 5682 5684 5686 5688 5689 5689 5687 5688 5691 5691 5691 5693 5694 5693 5695 5697 5698 5697 5699 5701 5703 5705 5706 5707 5710 5712 5714 5715 5717 5718 5715 5713 5715 5723 5731 5735 5735 5735 5737 5739 5740 5740 5740 5741 5743 5744 5745 5746 5747 5747 5748 5748 5748 5748 5747 5747 5747 5746 5745 5742 5740 5739 5739 5739 5739
5605 5610 5614 5619 5624 5629 5634 5638 5642 5645 5648 5652 5655 5658 5661 5663 5666 5668 5670 5671 5673 5675 5677 5679 5681 5682 5684 5684 5681 5682 5685 5685 5684 5686 5688 5687 5688 5691 5691 5690 5693 5695 5697 5697 5697 5698 5702 5705 5705 5705 5707 5708 5705 5705 5713 5722 5726 5726 5727 5728 5730 5731 5732 5732 5732 5735 5738 5739 5738 5738 5739 5740 5740 5740 5740 5739 5739 5739 5740 5739 5738 5735 5733 5733 5733 5732 5731
5597 5602 5608 5613 5618 5624 5629 5632 5636 5640 5644 5648 5651 5653 5656 5659 5661 5664 5666 5668 5669 5671 5673 5675 5676 5677 5678 5678 5675 5674 5676 5678 5678 5680 5682 5682 5683 5684 5684 5684 5687 5688 5689 5689 5690 5693 5696 5696 5694 5693 5696 5698 5699 5704 5712 5717 5717 5717 5719 5722 5723 5724 5725 5724 5724 5727 5731 5733 5732 5732 5733 5734 5733 5732 5732 5732 5732 5733 5733 5732 5731 5729 5728 5728 5727 5726 5725
5590 5596 5602 5607 5613 5619 5623 5626 5630 5635 5640 5643 5646 5649 5652 5654 5657 5660 5662 5663 5665 5667 5668 5670 5672 5671 5671 5672 5670 5666 5667 5671 5672 5673 5675 5676 5676 5677 5677 5678 5680 5680 5680 5682 5685 5687 5688 5686 5683 5683 5686 5691 5696 5702 5706 5707 5708 5710 5712 5714 5715 5716 5716 5716 5717 5720 5724 5725 5725 5726 5727 5727 5726 5726 5726 5726 5727 5727 5726 5726 5725 5724 5724 5723 5722 5721 5720
5584 5591 5597 5603 5608 5612 5616 5620 5626 5631 5635 5638 5641 5644 5647 5650 5652 5655 5657 5659 5660 5662 5664 5666 5666 5664 5664 5666 5664 5660 5661 5665 5666 5666 5668 5669 5669 5671 5671 5671 5672 5673 5673 5676 5680 5681 5678 5675 5674 5675 5679 5685 5691 5695 5696 5697 5699 5701 5703 5705 5707 5708 5707 5709 5712 5715 5716 5717 5718 5720 5720 5720 5720 5720 5721 5721 5721 5721 5720 5719 5719 5718 5718 5717 5716 5715 5715
5579 5586 5592 5598 5602 5606 5610 5616 5622 5626 5630 5634 5637 5640 5643 5646 5648 5650 5652 5654 5656 5658 5659 5659 5659 5657 5657 5660 5658 5654 5655 5659 5661 5661 5662 5663 5663 5664 5665 5664 5665 5666 5667 5670 5674 5673 5669 5667 5667 5669 5673 5679 5685 5687 5688 5689 5690 5692 5695 5698 5700 5700 5700 5702 5705 5709 5710 5710 5711 5713 5713 5714 5714 5714 5715 5715 5715 5714 5714 5713 5713 5713 5712 5712 5711 5710 5709
5576 5583 5588 5592 5596 5600 5606 5612 5617 5622 5626 5629 5633 5635 5638 5641 5643 5645 5647 5649 5651 5652 5652 5653 5652 5651 5652 5655 5654 5649 5649 5654 5657 5656 5656 5656 5657 5657 5658 5658 5659 5659 5661 5664 5667 5666 5662 5661 5662 5664 5669 5675 5678 5678 5678 5678 5680 5684 5687 5689 5691 5694 5695 5696 5699 5702 5704 5704 5705 5707 5707 5707 5708 5709 5709 5709 5709 5708 5708 5708 5707 5707 5707 5707 5706 5705 5703
5573 5578 5582 5586 5590 5596 5602 5608 5613 5617 5621 5625 5628 5631 5634 5636 5638 5641 5643 5644 5645 5646 5646 5646 5646 5646 5646 5650 5650 5646 5644 5648 5651 5650 5649 5650 5650 5650 5651 5652 5652 5653 5656 5660 5660 5658 5657 5658 5660 5663 5667 5669 5668 5668 5668 5670 5673 5677 5679 5681 5683 5686 5689 5690 5693 5696 5697 5698 5700 5701 5701 5701 5703 5703 5703 5703 5703 5703 5703 5702 5702 5702 5702 5701 5700 5699 5697
5567 5572 5576 5582 5587 5593 5598 5604 5609 5613 5617 5621 5624 5627 5630 5632 5635 5637 5638 5638 5638 5639 5640 5640 5640 5640 5641 5643 5644 5641 5638 5639 5641 5642 5642 5642 5642 5643 5645 5646 5646 5648 5652 5655 5654 5653 5654 5656 5658 5661 5662 5662 5661 5662 5663 5665 5667 5670 5672 5674 5677 5680 5683 5685 5688 5689 5691 5692 5693 5694 5695 5697 5698 5698 5698 5697 5697 5698 5698 5698 5698 5698 5697 5696 5694 5693 5692
5564 5569 5574 5580 5585 5590 5595 5600 5605 5609 5613 5617 5620 5623 5626 5629 5630 5630 5631 5631 5632 5633 5634 5634 5634 5634 5635 5635 5636 5635 5632 5631 5633 5634 5635 5635 5636 5637 5639 5640 5642 5645 5648 5649 5649 5650 5652 5653 5655 5657 5657 5657 5657 5658 5659 5660 5663 5665 5667 5669 5672 5675 5678 5680 5681 5683 5685 5686 5687 5688 5690 5691 5692 5692 5692 5692 5693 5693 5693 5693 5693 5693 5692 5691 5690 5689 5687
5563 5568 5573 5578 5583 5588 5593 5597 5602 5606 5610 5614 5617 5620 5622 5624 5624 5623 5624 5626 5627 5628 5628 5628 5628 5628 5628 5628 5628 5628 5627 5626 5626 5627 5628 5629 5630 5631 5633 5635 5638 5641 5643 5644 5644 5646 5648 5650 5652 5653 5654 5654 5654 5655 5656 5657 5659 5661 5663 5665 5668 5670 5673 5675 5676 5678 5679 5680 5682 5683 5684 5684 5685 5686 5687 5687 5688 5688 5688 5689 5689 5688 5687 5686 5685 5684 5683
5562 5567 5572 5576 5581 5586 5590 5595 5599 5603 5607 5611 5614 5616 5616 5617 5618 5619 5620 5622 5623 5622 5622 5622 5623 5623 5623 5623 5623 5623 5623 5622 5622 5623 5624 5625 5625 5626 5628 5631 5633 5636 5637 5639 5641 5643 5645 5648 5649 5650 5651 5652 5653 5653 5654 5655 5657 5659 5661 5663 5665 5667 5669 5671 5672 5673 5674 5675 5677 5678 5678 5679 5680 5681 5682 5683 5683 5683 5684 5684 5684 5683 5682 5681 5680 5679 5678
5561 5566 5570 5575 5579 5584 5588 5593 5597 5601 5604 5606 5608 5610 5611 5613 5614 5615 5615 5617 5618 5618 5618 5619 5620 5621 5621 5620 5620 5620 5620 5620 5620 5621 5621 5621 5621 5622 5624 5627 5629 5632 5633 5636 5638 5641 5643 5645 5646 5648 5649 5650 5651 5652 5653 5654 5655 5657 5658 5660 5662 5665 5666 5668 5669 5670 5671 5672 5673 5674 5674 5675 5676 5678 5678 5678 5679 5679 5679 5679 5679 5678 5678 5677 5676 5675 5674
5560 5565 5569 5573 5578 5582 5586 5590 5594 5597 5599 5602 5604 5605 5607 5608 5609 5610 5611 5613 5614 5615 5616 5617 5618 5618 5619 5618 5618 5618 5618 5618 5618 5619 5619 5619 5619 5621 5622 5625 5627 5630 5632 5634 5637 5640 5642 5643 5644 5645 5647 5649 5651 5651 5651 5651 5653 5656 5657 5658 5660 5663 5664 5665 5666 5667 5668 5669 5670 5671 5671 5672 5673 5674 5674 5674 5674 5674 5674 5674 5674 5674 5673 5672 5671 5671 5670
5560 5564 5568 5572 5577 5580 5584 5587 5590 5593 5596 5598 5600 5601 5603 5604 5606 5608 5610 5612 5613 5614 5615 5616 5616 5616 5616 5616 5616 5617 5616 5616 5616 5617 5617 5618 5619 5620 5622 5624 5627 5629 5631 5633 5636 5638 5639 5641 5642 5644 5645 5647 5649 5650 5649 5650 5653 5656 5657 5657 5658 5660 5662 5663 5664 5664 5665 5666 5667 5668 5669 5670 5670 5669 5669 5670 5670 5670 5670 5670 5669 5669 5668 5667 5667 5667 5666
5560 5564 5568 5571 5575 5578 5581 5585 5588 5591 5593 5595 5597 5599 5601 5604 5606 5607 5609 5610 5612 5613 5613 5614 5615 5615 5615 5615 5615 5615 5615 5615 5616 5617 5618 5618 5620 5621 5623 5624 5626 5628 5630 5632 5634 5636 5637 5639 5641 5643 5644 5646 5647 5648 5648 5649 5651 5653 5654 5655 5656 5658 5660 5661 5662 5662 5663 5664 5665 5665 5666 5666 5666 5666 5666 5666 5666 5666 5665 5665 5665 5664 5664 5663 5663 5662 5662
5560 5564 5567 5570 5574 5577 5580 5583 5585 5588 5590 5594 5597 5599 5601 5603 5604 5606 5608 5610 5611 5612 5613 5613 5613 5614 5614 5614 5614 5614 5615 5615 5616 5617 5618 5619 5620 5621 5622 5623 5625 5627 5629 5631 5633 5635 5636 5638 5640 5641 5643 5644 5645 5646 5646 5647 5649 5650 5651 5653 5655 5657 5658 5659 5660 5661 5661 5661 5662 5662 5662 5662 5662 5662 5662 5662 5662 5661 5661 5661 5661 5660 5660 5659 5659 5658 5657
5561 5564 5567 5570 5573 5576 5579 5582 5584 5588 5591 5594 5597 5599 5600 5602 5604 5606 5608 5609 5610 5611 5611 5612 5612 5613 5613 5613 5614 5614 5614 5615 5615 5616 5617 5618 5619 5620 5622 5623 5625 5626 5628 5631 5633 5634 5635 5636 5638 5639 5640 5642 5643 5643 5644 5645 5646 5648 5649 5651 5653 5655 5656 5657 5657 5658 5658 5658 5659 5659 5659 5659 5659 5659 5658 5658 5658 5657 5657 5657 5657 5656 5656 5655 5654 5654 5653
5561 5564 5566 5570 5573 5576 5580 5583 5586 5589 5592 5595 5596 5598 5600 5602 5604 5606 5607 5608 5609 5610 5611 5611 5612 5613 5613 5613 5614 5614 5614 5615 5615 5616 5617 5618 5620 5621 5623 5624 5626 5627 5629 5631 5633 5634 5635 5636 5637 5637 5638 5639 5640 5641 5642 5643 5644 5646 5648 5649 5651 5652 5653 5653 5654 5655 5655 5655 5655 5655 5655 5655 5655 5655 5654 5654 5654 5653 5653 5653 5653 5652 5651 5651 5650 5650 5649